User: anonymous   Login
Location: D�pe
(52.6057°N, 8.1808°E)
Time: 23:39:34
(UTC+00:00)
Language:

Cosmos 968 Rocket - Orbit

View from above orbital plane
View from above orbital plane
View from above satellite
View from above satellite

Ground track
Ground track

The orbit data is extracted from the following two-line orbital elements,

1 10521U 77119B   21018.42360934  .00000038  00000-0  20092-4 0  9995
2 10521  74.0285   0.0441 0019865  50.5442 309.7467 14.40807966260835
Epoch (UTC): 18 January 2021 10:09:59
Eccentricity: 0.0019865
inclination: 74.0285°
perigee height: 741 km
apogee height: 770 km
right ascension of ascending node: 0.0441°
argument of perigee: 50.5442°
revolutions per day: 14.40807966
mean anomaly at epoch: 309.7467°
orbit number at epoch: 26083

The dashed part of the orbit path shows where the satellite is in the earth's shadow,  

DLR